Theta_e
296 296 297 296 296 298 300 301 301 301 300 299 300 304 308 310 311 311 309 308 307 307 307 308 308 308 308 309 310 311 311 311 311 311 311 312 311 310 308 307 308 309 309 309 309 309 309 309 309 310 309 309 309 309 308 308 307 308 307 306 307 309 310 311 312 313 312 310 311 312 312 312 312 313 313 313 313 313 313 314 315 316 315 315 316 316 318
296 296 296 297 296 297 299 301 301 300 299 299 301 304 308 309 310 310 309 308 307 308 308 309 309 309 310 310 310 311 312 312 312 312 312 313 312 310 308 308 308 309 309 309 309 309 310 310 310 310 309 309 309 309 308 308 307 307 307 307 308 309 310 311 313 314 314 312 311 312 312 312 312 313 313 313 313 314 314 314 315 317 315 315 317 316 317
297 296 296 297 296 296 298 300 301 300 298 299 302 304 307 308 310 311 310 308 308 308 309 309 309 310 310 310 310 311 312 312 313 313 312 313 313 310 308 308 307 307 307 308 309 309 310 310 310 310 310 309 309 309 308 308 307 308 308 309 310 310 311 312 314 314 314 312 312 312 312 312 312 313 312 313 313 313 314 314 315 316 316 315 316 316 318
297 297 296 296 296 296 297 300 301 300 299 300 302 303 306 309 310 311 310 309 309 309 309 309 309 309 309 309 311 311 312 313 313 313 313 313 314 311 308 306 306 306 306 308 309 309 310 310 311 311 310 309 309 309 308 308 308 308 309 310 311 311 312 314 314 315 314 312 312 312 312 312 312 312 312 313 314 314 314 314 314 315 316 315 316 318 320
297 297 296 296 297 296 297 299 301 301 301 302 303 304 307 309 309 308 309 309 310 310 311 311 311 310 310 310 311 312 312 312 313 313 313 314 314 312 310 307 306 306 308 308 308 310 311 311 311 311 311 309 309 309 308 308 308 309 310 311 311 311 313 314 314 315 314 312 312 312 312 312 311 311 312 312 313 314 315 316 316 316 316 315 317 321 322
297 296 296 296 297 297 297 298 300 301 302 303 304 305 307 308 308 308 308 308 309 309 309 310 310 310 311 312 311 312 312 312 312 313 312 313 314 314 313 310 308 307 308 308 308 310 313 313 312 312 311 310 310 309 308 308 309 309 309 311 312 312 313 314 313 313 313 313 313 313 312 312 312 312 312 313 313 314 315 317 317 318 317 316 318 324 324
296 296 296 296 296 297 297 297 299 301 303 304 305 305 305 305 306 306 306 306 307 307 307 308 309 310 311 312 312 313 313 312 312 312 312 313 314 314 314 313 311 308 306 306 308 310 313 314 314 314 313 312 310 309 308 308 309 309 309 310 313 313 313 314 314 314 313 313 314 314 313 312 312 312 313 313 313 314 315 316 316 317 318 318 321 326 326
296 296 296 295 296 297 297 297 298 300 302 304 305 304 303 303 304 305 304 304 305 307 308 309 310 311 312 312 312 313 312 312 312 311 312 313 313 315 316 315 314 310 306 306 308 311 312 312 314 315 315 315 313 309 309 309 308 309 309 311 313 314 314 315 316 315 315 314 314 314 313 313 313 313 313 313 313 314 315 316 317 317 318 319 322 324 323
296 296 296 295 296 297 297 297 298 299 300 303 304 304 303 302 302 302 302 303 305 307 308 310 310 310 311 312 311 311 312 312 311 311 312 313 313 314 316 316 316 313 307 306 308 311 311 311 313 314 315 316 314 311 310 309 309 309 310 311 313 313 314 316 316 316 315 315 315 314 314 314 313 313 314 313 314 315 316 317 318 318 318 320 321 320 319
297 296 295 295 296 297 297 297 297 298 300 301 302 303 302 301 301 301 302 303 305 306 308 309 309 310 310 310 310 311 311 310 311 312 313 313 313 314 316 316 315 314 310 310 311 310 311 312 313 314 315 316 315 315 314 311 310 310 310 312 313 313 314 315 316 315 316 317 317 316 316 315 314 314 314 314 314 315 316 316 318 319 319 319 319 318 320
297 296 295 295 295 296 297 297 297 298 299 300 301 302 301 301 300 301 301 302 304 306 306 307 308 309 310 310 309 309 309 309 310 312 312 312 312 314 315 316 315 315 315 315 314 314 314 315 315 316 316 316 316 316 315 313 311 311 312 312 314 315 316 316 316 315 316 319 318 317 318 317 316 315 315 315 315 316 316 317 317 318 318 318 318 319 322
297 296 295 295 295 296 297 297 297 298 298 299 300 301 301 301 300 301 302 302 303 304 305 306 308 309 309 309 308 308 308 309 311 312 311 312 313 313 314 314 314 314 314 316 317 317 317 318 317 316 316 316 315 315 314 313 311 311 312 313 315 318 317 315 315 315 316 318 319 318 319 319 317 317 317 316 315 316 317 318 318 318 318 318 319 319 321
297 296 296 296 295 295 296 297 297 298 298 299 300 301 301 301 300 301 301 301 302 303 304 305 307 308 308 308 307 308 309 311 311 311 310 311 313 313 313 313 312 313 314 315 317 317 317 317 317 316 315 314 314 315 314 313 312 311 311 312 316 319 318 316 315 316 317 318 319 319 320 319 319 320 319 318 317 316 318 318 318 319 319 319 319 318 319
297 296 296 296 296 295 295 296 297 298 298 298 299 301 301 301 301 301 301 301 302 303 303 304 306 306 307 307 307 308 309 310 309 308 309 310 312 313 313 311 311 314 315 316 317 317 316 316 316 316 315 315 316 316 315 313 312 313 312 311 315 317 317 316 316 317 318 318 319 320 320 320 320 320 320 320 318 317 319 318 318 320 319 318 318 318 319
297 296 296 296 296 296 295 296 297 297 298 298 299 300 301 301 301 300 300 301 301 302 304 304 304 305 306 307 307 307 307 307 306 307 308 310 312 312 312 311 312 314 315 315 317 317 316 316 316 316 315 315 316 316 314 313 313 313 313 313 314 315 316 316 316 316 317 318 319 320 320 319 321 322 323 324 322 321 322 319 318 319 319 318 319 319 319
297 296 296 296 296 296 296 296 296 297 297 297 298 300 301 301 301 300 300 301 301 302 304 303 304 305 305 306 306 305 306 305 305 307 308 309 311 312 311 310 312 315 315 316 317 317 316 316 316 315 315 315 314 314 313 313 313 313 313 313 314 315 315 315 316 316 317 318 319 320 320 320 321 323 324 323 322 322 322 318 316 319 319 318 318 319 320
297 296 296 296 296 296 296 296 296 296 297 297 298 299 300 301 301 300 300 301 301 302 303 303 304 304 305 305 305 305 305 305 306 307 307 308 310 311 310 310 312 314 315 316 317 316 316 315 316 317 315 314 312 313 313 313 313 313 313 313 314 315 315 316 316 316 317 318 318 320 319 319 321 322 323 322 321 322 321 317 318 323 325 322 319 319 320
297 296 296 296 297 296 296 296 296 296 296 297 298 299 300 301 301 301 300 300 301 302 302 303 303 304 304 304 304 305 305 305 306 306 306 308 310 310 309 310 312 313 313 316 316 316 315 316 317 318 317 315 312 313 312 312 313 313 313 313 314 315 315 315 316 316 317 317 318 319 319 318 320 322 323 323 322 320 319 319 323 328 329 326 324 323 320
297 296 296 297 297 297 296 296 295 296 296 297 298 299 300 300 300 300 300 300 301 301 302 302 302 303 304 304 304 304 304 304 305 305 306 308 310 309 309 311 312 312 313 314 315 315 316 316 317 317 317 317 317 316 315 314 313 313 313 313 314 315 316 316 316 316 316 317 318 319 319 319 320 322 323 324 322 320 321 324 327 328 328 326 326 327 326
297 296 296 297 297 297 296 296 295 295 297 297 298 299 299 300 300 300 301 300 301 301 301 301 302 303 303 303 304 304 304 304 304 305 306 307 308 308 309 310 311 311 312 313 314 314 315 315 316 317 317 317 318 318 317 317 315 313 314 314 314 315 317 316 316 317 317 317 318 319 320 320 322 322 323 323 324 324 326 328 328 327 327 326 326 327 329
297 296 296 297 297 297 296 296 295 295 296 297 298 298 299 300 300 300 301 301 301 301 301 301 302 302 302 302 302 302 303 303 304 304 305 306 306 308 308 309 310 311 312 313 313 314 313 314 315 317 317 317 318 318 318 317 318 315 314 315 315 316 316 316 316 318 317 317 318 319 319 321 323 323 323 324 325 326 328 328 327 326 327 327 325 325 329
297 296 297 297 297 297 296 296 295 295 296 297 298 299 299 300 300 300 301 301 301 301 301 301 301 302 302 302 303 303 303 303 303 303 304 305 306 307 308 309 311 312 313 313 313 312 312 312 313 315 317 317 318 318 318 318 318 317 316 316 316 317 317 316 317 318 318 319 319 319 319 322 324 324 324 325 325 325 326 326 326 328 328 329 328 328 330
297 296 297 297 298 297 296 296 295 295 295 296 297 299 299 299 300 300 301 301 301 301 301 302 302 303 303 304 305 305 305 304 304 304 304 305 306 307 307 309 312 312 313 314 313 311 311 312 312 313 315 317 317 317 318 318 317 317 318 317 317 318 318 317 318 318 319 319 319 318 322 324 324 324 325 326 325 324 324 324 326 327 328 329 330 331 332
297 297 297 298 298 297 297 296 295 295 295 296 297 298 299 299 300 300 301 301 302 301 302 302 303 303 304 304 305 305 305 305 305 305 305 305 305 306 307 309 310 311 311 313 313 312 311 311 312 312 313 315 317 317 317 317 317 318 318 318 318 319 318 318 318 317 318 320 320 320 323 324 324 324 324 324 324 324 324 324 324 324 325 327 329 331 332
297 297 297 298 298 297 296 296 296 295 295 296 296 297 298 300 300 300 301 302 301 301 301 302 302 303 304 304 304 304 304 304 304 305 305 306 306 306 307 307 308 309 310 310 311 312 312 311 312 312 313 315 316 317 317 317 317 318 318 318 319 320 320 319 318 317 317 320 321 323 323 324 325 324 323 323 325 325 324 324 323 323 324 325 327 330 331
297 297 297 298 298 297 296 296 296 295 295 296 296 296 298 299 300 300 301 301 301 301 301 302 303 303 303 303 303 303 304 304 304 304 305 306 306 306 307 307 307 308 309 310 310 311 311 311 311 312 313 315 316 316 317 317 318 318 318 318 319 319 319 320 319 318 318 320 322 322 322 322 323 323 323 324 324 324 323 324 323 323 323 324 324 325 328
297 297 297 298 298 297 296 296 295 296 296 296 296 296 297 299 299 300 301 301 301 301 302 302 303 302 302 303 304 305 305 306 306 305 305 306 307 307 307 307 308 309 310 310 311 312 311 311 312 312 313 313 314 315 317 318 318 318 318 319 319 320 320 320 319 319 320 321 322 322 321 320 322 323 323 323 323 322 322 324 324 323 324 324 323 322 323
297 297 298 298 298 297 296 295 295 295 296 296 296 297 298 299 300 301 301 301 301 301 301 301 301 301 302 304 305 305 305 305 305 306 306 306 307 308 308 308 309 309 310 311 311 312 311 311 312 312 312 313 314 315 317 318 318 318 318 319 319 319 320 320 320 320 320 320 321 322 321 321 322 323 323 323 323 323 324 324 324 324 324 324 324 324 323
297 297 298 298 298 297 296 295 295 295 295 296 297 298 300 301 302 302 302 302 301 301 301 301 301 302 303 303 303 304 305 306 306 306 306 307 307 308 308 309 309 310 311 311 311 311 312 312 312 312 312 312 313 314 315 316 316 317 318 318 318 319 319 319 320 321 320 320 321 322 322 322 322 323 323 324 324 325 325 324 323 323 323 324 325 324 324
297 297 298 298 298 297 296 295 295 295 294 296 298 300 301 302 303 302 303 302 301 301 301 300 300 301 302 302 303 305 307 307 307 307 307 307 307 308 308 309 309 310 311 312 312 312 312 312 312 312 312 312 313 314 315 315 315 316 317 318 318 319 318 318 319 320 321 321 322 322 323 323 323 323 323 323 323 324 324 323 322 322 322 323 324 323 323
298 297 298 298 298 297 296 295 295 295 295 297 299 301 302 304 303 302 302 301 300 300 300 300 300 301 302 303 304 306 307 308 308 308 308 308 308 308 308 309 309 310 311 312 313 313 312 313 313 312 313 314 314 313 314 314 314 315 317 318 318 317 316 316 318 320 321 321 321 322 323 324 323 323 323 322 322 323 323 322 322 322 322 323 323 323 324
297 297 298 298 298 297 296 295 295 295 295 297 298 300 301 302 302 302 301 300 299 300 300 301 301 301 303 304 305 307 308 308 308 307 307 308 309 309 310 310 310 310 311 312 312 312 312 312 312 313 314 315 315 313 313 313 313 315 317 317 317 316 315 315 318 320 320 320 321 322 323 323 323 324 323 323 322 322 321 321 321 321 321 322 323 323 324
297 297 298 298 298 297 296 295 295 295 296 297 298 299 300 300 300 300 300 299 300 300 301 301 301 301 302 304 305 307 308 308 308 308 309 309 310 310 311 311 311 311 311 312 312 312 312 312 312 312 313 314 314 313 312 313 313 314 315 316 316 316 316 317 319 319 319 319 320 322 323 324 324 324 323 322 322 321 320 319 320 320 320 320 321 322 322
297 297 298 298 298 297 296 295 296 297 298 299 300 301 302 301 301 300 299 299 300 301 300 300 300 301 302 304 306 307 308 307 307 309 309 309 309 310 310 310 311 312 312 312 312 312 312 312 312 311 311 312 313 312 312 313 314 314 314 314 315 315 317 318 319 318 319 318 319 320 321 322 323 322 321 321 321 321 320 320 320 320 320 319 320 321 321
297 297 298 298 298 297 297 297 298 299 300 301 302 303 303 302 301 300 299 299 300 301 301 301 301 302 303 304 306 307 307 307 308 308 308 309 309 309 309 309 310 311 311 312 312 312 312 312 311 311 311 311 312 311 312 313 313 313 314 314 314 315 316 316 317 318 318 318 318 319 320 320 321 322 321 321 321 320 321 321 320 320 320 320 320 320 321
297 297 298 298 298 299 300 301 302 302 302 303 303 303 303 301 300 299 300 300 300 301 301 301 302 302 303 304 306 307 307 307 308 308 308 308 308 309 309 309 309 310 311 311 311 312 312 311 311 310 311 311 311 311 311 312 312 313 313 314 314 314 315 315 316 318 319 319 319 319 319 320 321 321 320 321 321 320 319 319 318 319 319 318 318 319 319
297 298 298 299 301 302 303 303 303 303 303 303 303 302 301 300 299 299 300 300 300 300 301 301 301 302 303 304 306 306 306 307 307 307 308 308 308 308 308 308 308 309 309 309 310 311 311 311 311 310 311 311 310 311 311 311 312 313 312 313 314 314 314 315 316 317 318 319 319 319 318 318 319 320 319 319 319 319 318 318 316 316 316 316 316 316 317
298 299 300 302 303 304 303 304 304 303 303 302 302 301 300 300 300 300 301 301 300 301 301 301 301 303 304 305 306 306 306 307 307 307 307 308 308 308 308 308 308 309 308 309 310 310 310 310 310 310 310 311 311 311 312 311 312 312 312 314 315 315 315 316 317 317 317 318 318 318 318 318 319 319 318 317 316 316 317 316 315 315 316 316 315 316 317
299 301 302 303 303 303 303 303 302 301 301 301 301 300 301 301 301 302 302 302 301 302 302 302 303 304 305 306 306 307 307 307 307 307 307 307 307 308 308 308 308 309 308 308 309 309 309 310 310 310 310 311 311 312 312 312 312 312 313 315 317 317 316 317 319 318 316 317 317 317 317 318 317 316 315 315 315 315 315 315 315 316 316 315 315 316 316
301 302 302 302 302 302 302 301 300 300 301 301 301 301 302 302 302 303 303 304 303 303 304 304 305 306 306 306 306 307 306 306 307 307 307 307 307 308 308 308 308 308 307 308 309 309 308 309 309 309 310 312 312 312 312 312 312 313 314 315 318 318 318 319 319 318 317 316 317 316 316 317 316 316 315 314 315 315 315 314 315 316 316 316 315 315 316
301 301 300 300 300 300 300 300 300 300 301 302 302 302 302 302 302 303 303 304 304 305 306 306 306 306 307 306 306 306 306 306 306 307 307 307 307 307 307 308 307 307 307 307 308 309 309 308 308 309 311 313 313 313 313 313 313 313 313 315 317 318 319 320 319 318 318 317 317 316 316 316 316 316 315 314 313 314 315 315 315 316 316 316 316 316 316
299 298 298 298 298 299 299 300 300 301 302 302 301 302 302 302 303 303 303 304 304 305 306 306 305 306 306 305 305 305 305 305 306 306 306 306 307 307 307 307 307 307 307 308 308 309 308 308 308 310 312 313 313 313 313 313 313 313 314 314 315 317 320 320 318 316 317 317 317 317 317 317 317 316 316 316 315 315 315 316 316 316 316 315 315 316 316
297 297 298 299 299 300 300 300 301 301 301 301 301 302 302 302 302 303 303 304 305 305 305 305 305 305 305 305 305 305 305 305 306 306 306 306 307 307 307 307 307 307 308 308 308 308 308 308 310 311 312 312 312 313 313 313 313 313 314 313 313 315 318 319 317 316 316 317 318 317 317 316 316 316 316 316 316 315 315 316 316 317 316 315 315 315 315
298 299 299 299 300 300 300 300 301 302 301 301 302 302 302 302 303 304 304 304 305 305 305 305 304 304 304 304 305 305 305 305 305 306 306 306 306 306 307 307 307 308 308 308 308 307 308 309 311 311 312 312 312 312 313 313 313 314 314 314 314 314 315 316 317 317 316 316 317 317 316 316 316 316 315 315 315 315 315 315 316 316 316 315 315 315 314
299 300 299 299 300 300 300 300 301 302 302 302 302 302 302 303 304 304 304 304 304 304 304 304 304 304 304 304 304 304 304 305 305 305 306 305 306 306 307 307 307 307 307 308 308 308 308 310 311 311 311 311 311 312 312 313 313 314 314 314 315 314 314 314 315 315 314 314 315 315 315 315 315 315 314 314 314 314 314 315 315 315 315 315 315 315 314
299 299 299 299 300 300 300 300 301 302 303 303 303 304 304 304 304 304 304 303 303 303 303 303 303 303 303 304 304 304 304 304 304 305 305 305 306 306 307 307 308 307 307 308 308 308 309 309 309 310 310 310 310 310 311 312 312 313 313 314 315 314 314 313 313 313 313 313 314 314 314 313 314 314 314 314 314 314 314 315 315 314 314 314 314 314 314
299 299 299 299 299 300 300 300 301 302 303 303 304 304 304 303 303 303 303 303 303 303 303 302 303 303 303 303 303 304 304 304 304 305 305 305 305 306 306 307 307 307 308 308 308 308 308 309 308 308 308 309 308 308 308 309 310 311 312 313 314 314 314 313 313 313 313 313 313 313 313 313 313 313 313 314 314 314 314 315 315 314 313 314 314 314 313
298 299 299 299 299 300 300 301 302 302 303 303 303 303 303 303 302 302 302 302 302 302 302 302 302 302 302 303 303 303 304 304 304 304 305 305 305 306 306 306 307 307 308 308 308 307 307 308 308 307 308 308 307 306 307 307 307 309 310 312 313 314 314 314 313 313 313 313 313 313 312 312 312 313 313 313 313 313 313 314 314 314 314 314 314 313 312
298 298 299 299 299 300 301 301 302 302 302 303 303 303 302 302 302 302 302 302 302 302 302 302 302 301 302 302 303 303 303 304 304 304 304 305 305 306 306 307 307 307 307 307 307 307 307 307 307 306 306 306 305 305 305 305 305 306 308 309 311 312 313 313 313 312 312 312 313 313 312 311 311 311 311 311 311 311 311 312 313 314 314 313 313 312 311
297 298 298 299 299 300 301 301 301 302 302 303 303 302 302 302 302 302 301 301 301 301 301 301 301 301 302 302 302 303 303 303 303 304 304 305 305 306 306 306 307 307 306 306 307 307 306 306 305 304 304 304 303 303 303 303 304 304 305 306 309 310 311 311 312 312 312 312 312 312 312 311 310 311 311 310 309 309 310 310 311 312 312 312 311 311 310
298 298 298 299 299 300 301 301 301 301 301 302 302 301 301 301 301 301 301 301 301 301 301 301 302 302 302 302 302 302 303 303 303 303 304 305 305 305 306 305 306 306 306 305 306 305 304 303 302 302 302 302 302 302 302 302 302 302 302 303 305 307 307 308 310 310 311 311 311 311 311 312 311 311 311 310 309 309 309 309 309 311 311 310 310 310 310
298 298 299 299 300 300 300 301 301 301 301 301 301 301 301 301 301 301 300 300 300 301 301 301 301 301 301 302 302 302 303 303 303 303 304 304 304 304 305 305 305 305 304 304 304 303 302 301 300 299 299 300 300 300 301 301 301 301 301 302 302 303 304 305 307 308 309 309 310 310 311 311 311 311 311 310 310 310 310 309 308 310 311 311 310 310 310
Wind_Speed
23 24 25 26 25 24 22 23 25 24 23 21 14 8 8 8 4 0 5 4 3 3 4 6 6 6 10 13 15 17 15 13 15 16 14 11 6 7 6 6 8 8 9 12 11 10 8 7 7 6 7 11 10 10 14 18 16 10 8 10 14 11 4 4 7 7 11 17 15 14 16 15 13 12 12 12 11 12 11 8 7 6 8 10 8 8 8
22 24 25 26 26 24 23 23 24 22 20 19 16 11 10 12 7 3 6 5 4 5 5 6 6 7 11 13 16 19 15 12 14 13 12 10 3 6 6 6 8 8 8 11 13 11 8 4 4 5 6 8 13 16 18 19 14 10 10 9 8 8 6 5 5 4 6 12 11 11 13 12 9 10 13 14 15 17 14 11 9 7 11 14 9 7 8
22 23 24 25 25 26 24 23 22 19 14 14 14 11 11 13 7 6 7 7 8 9 8 8 8 9 12 13 15 17 14 12 14 13 15 14 0 6 5 6 7 5 5 8 13 13 10 6 3 4 6 8 13 16 20 19 14 14 15 11 5 4 5 4 3 4 6 10 10 9 10 10 9 11 16 18 20 20 15 10 8 7 11 15 10 5 4
23 23 24 24 25 26 25 23 21 15 12 14 14 10 10 11 4 3 6 9 12 14 15 12 9 7 8 10 12 14 12 13 18 16 15 13 1 8 3 3 3 3 3 6 10 12 13 10 6 6 5 6 8 13 19 18 17 17 14 8 3 4 5 5 7 9 7 9 11 11 11 12 12 16 20 20 20 19 15 10 8 7 8 9 9 6 3
23 23 24 24 25 26 26 24 19 13 10 13 14 11 9 8 6 5 2 5 10 13 13 12 9 8 7 6 9 14 16 15 16 14 14 11 2 7 5 4 4 0 1 3 7 11 11 7 8 10 7 6 7 12 17 16 17 16 12 9 6 5 6 9 12 13 11 8 9 13 16 16 16 19 20 20 21 21 18 10 6 7 7 7 10 9 3
21 22 24 24 24 25 27 25 19 12 9 10 12 13 9 7 9 9 7 3 7 7 8 10 11 11 10 8 9 15 17 16 14 13 15 13 4 2 4 5 7 5 3 1 4 9 7 1 4 7 7 6 7 11 14 14 17 16 13 14 10 5 7 9 10 12 12 9 8 10 17 17 16 19 20 21 23 22 18 11 9 10 8 7 10 7 4
19 21 23 24 24 24 26 27 22 14 8 8 9 10 10 11 10 8 9 8 11 14 17 17 15 13 10 7 9 12 14 16 16 13 13 13 7 3 4 5 5 8 7 3 3 7 6 3 3 2 3 7 5 9 10 13 18 16 13 13 9 4 6 8 8 10 11 11 11 12 16 17 17 20 21 21 21 19 16 14 15 16 13 12 12 7 3
18 20 21 23 23 23 25 26 25 20 11 9 10 9 10 12 9 10 14 14 14 17 18 15 13 11 7 5 8 12 13 15 17 16 14 14 11 7 7 9 4 7 10 6 5 6 6 7 7 4 4 7 4 7 8 10 15 15 12 9 8 7 4 4 3 5 9 11 12 13 15 17 18 20 21 21 20 19 19 16 14 14 14 15 12 7 3
18 19 20 22 22 21 23 23 24 24 16 11 11 11 10 11 9 10 13 12 10 13 14 12 11 8 6 6 10 13 14 17 19 17 16 15 14 14 15 15 8 5 10 9 10 12 12 12 13 11 9 9 7 4 6 9 12 12 11 8 7 8 3 3 3 5 4 9 14 14 13 15 18 18 19 20 18 17 16 13 10 10 12 13 10 4 4
17 18 18 21 21 20 21 22 22 22 19 13 11 11 12 12 10 10 10 9 10 11 11 11 10 7 8 11 13 14 16 20 19 14 13 17 20 19 16 13 7 2 7 10 14 17 19 18 17 16 14 14 14 13 12 12 11 9 9 7 5 5 3 1 3 4 4 8 12 9 7 11 14 14 17 19 18 17 16 13 12 13 12 9 6 5 6
16 17 17 20 21 19 19 20 20 21 19 14 10 10 12 11 11 13 11 8 10 12 10 8 8 9 13 17 18 17 18 20 19 14 11 16 22 22 16 13 10 5 4 5 8 9 13 16 17 15 15 17 17 18 18 17 15 11 9 7 4 2 2 2 1 2 4 5 4 6 5 9 7 6 13 19 19 19 18 14 15 16 14 10 8 7 7
15 16 17 19 20 19 18 18 18 18 17 13 9 8 10 10 11 14 11 8 10 12 9 9 12 14 18 20 19 18 19 20 20 19 15 15 19 21 19 16 12 11 16 14 6 5 8 10 12 11 12 14 15 17 18 15 15 14 11 8 5 4 1 3 2 2 2 4 5 4 5 7 6 6 10 16 19 20 18 16 16 17 16 14 12 10 8
15 16 17 18 19 19 17 17 16 16 15 14 10 8 8 9 10 12 12 9 9 9 9 13 19 19 19 21 20 19 22 24 22 21 19 16 16 18 18 18 16 17 22 18 8 7 7 5 5 6 9 10 10 14 17 15 13 12 12 10 6 5 2 2 3 3 2 1 0 3 4 9 12 12 10 13 17 18 16 14 14 14 13 12 12 13 10
15 17 17 18 19 19 17 16 15 15 13 13 11 8 7 8 9 11 12 8 8 14 16 13 13 17 18 20 20 19 20 21 19 19 20 18 16 17 19 22 22 22 22 16 7 6 4 2 1 2 5 5 5 10 14 14 11 10 12 10 7 7 5 3 4 3 1 0 1 4 7 10 11 9 6 9 11 9 9 9 10 13 13 13 14 15 12
15 17 18 18 18 19 18 16 14 14 13 12 11 9 8 9 8 8 10 11 11 15 15 8 12 18 19 19 19 16 13 13 13 16 19 19 18 17 21 24 24 22 20 12 4 3 1 3 2 2 4 4 5 7 8 9 8 9 11 9 7 7 5 4 4 2 1 1 2 4 6 5 4 5 9 10 9 5 2 4 7 10 13 14 14 15 14
16 17 17 17 18 19 18 16 14 13 14 13 11 10 9 9 9 8 10 12 10 9 11 16 22 22 19 18 18 15 11 9 10 11 12 14 18 19 23 25 22 20 19 10 2 0 2 2 3 4 4 6 7 5 5 6 6 7 9 7 6 6 4 3 4 4 2 2 3 4 4 3 5 9 13 15 15 9 2 5 7 7 10 15 14 11 10
17 17 16 16 18 18 18 17 14 13 13 13 12 11 10 9 9 10 10 12 13 16 21 24 24 21 15 13 14 14 13 11 12 10 8 13 17 19 24 25 20 20 21 11 2 3 3 3 4 5 4 4 6 6 5 6 6 7 9 8 7 6 3 1 4 5 4 3 4 4 3 3 5 8 12 17 17 10 5 7 5 1 4 9 12 12 13
17 17 16 16 17 18 18 17 15 13 13 12 11 12 11 10 11 12 12 12 14 18 21 20 21 20 16 13 15 16 15 15 13 10 10 13 13 18 25 21 13 17 20 12 3 3 4 3 4 4 5 5 2 3 4 5 6 6 8 8 7 5 3 2 3 5 4 4 4 3 3 5 4 5 12 19 15 7 6 5 2 6 11 9 6 8 14
16 16 15 16 17 18 17 16 15 14 13 12 12 13 12 10 11 13 14 14 14 19 25 24 22 21 18 17 20 19 16 16 14 10 8 8 12 23 25 13 7 13 15 10 6 5 5 4 4 3 5 7 6 4 5 4 5 6 6 7 6 4 3 2 3 4 3 3 4 4 3 4 4 8 16 19 10 4 2 3 5 8 10 10 9 9 9
15 15 16 16 17 18 17 16 15 14 12 11 12 14 13 10 11 13 15 15 17 26 32 27 19 21 22 21 21 20 18 18 15 11 8 8 16 23 16 5 8 13 9 7 7 6 5 6 6 4 4 6 5 6 7 6 5 7 7 7 6 4 4 3 3 3 3 3 4 3 2 0 3 8 12 9 2 1 3 5 6 7 7 7 6 9 16
15 16 16 17 18 18 17 17 15 13 13 11 11 15 15 11 10 14 16 17 18 22 27 25 22 24 27 24 22 22 20 19 17 14 14 16 17 14 7 6 11 9 5 5 6 5 5 6 5 3 3 4 4 4 6 7 8 6 6 8 6 4 4 4 2 2 3 2 2 3 2 0 3 2 3 3 6 10 9 5 5 5 4 5 4 4 11
15 16 16 17 19 19 18 17 15 14 14 12 11 13 14 11 11 13 15 18 20 24 30 34 32 29 25 19 18 19 20 22 22 18 17 19 17 12 11 14 12 7 6 6 5 4 5 5 4 4 3 2 3 5 5 5 5 5 7 7 4 5 5 5 2 1 2 2 5 4 2 1 1 1 4 4 7 14 14 9 6 5 4 5 4 1 3
16 16 16 17 19 20 18 16 16 15 14 12 11 11 13 14 12 11 14 18 22 27 32 32 29 27 23 19 16 17 18 19 20 19 17 17 16 15 16 13 9 8 7 5 4 5 6 4 5 6 4 3 3 4 4 3 2 4 7 9 7 6 8 3 2 2 3 5 11 6 4 4 1 1 4 6 9 14 19 17 13 11 7 4 2 2 2
16 15 16 18 19 20 19 17 16 15 14 13 11 10 13 14 11 11 15 16 18 23 24 22 20 19 18 18 18 18 16 17 20 20 18 16 13 13 13 9 10 11 10 8 6 7 7 5 5 6 5 4 3 3 3 2 3 3 5 8 8 4 3 3 3 5 4 3 7 5 3 4 1 0 2 6 10 12 16 16 20 23 14 4 3 6 6
15 14 16 18 19 20 20 18 17 15 13 14 13 12 13 14 11 12 15 15 16 16 14 17 21 17 14 20 24 21 18 18 20 20 19 20 19 17 17 16 15 13 14 14 11 10 9 6 5 6 6 3 2 2 2 2 4 4 3 4 5 6 11 9 6 9 7 3 2 3 1 3 4 4 4 7 10 9 10 7 13 23 20 9 8 10 11
14 14 16 18 18 19 20 18 18 16 13 14 16 15 15 17 15 13 14 15 17 15 11 15 22 20 20 25 24 18 17 17 17 18 19 21 23 22 22 23 20 15 15 16 13 12 10 6 4 6 6 3 2 3 3 2 5 5 3 4 6 6 9 9 8 8 6 1 6 9 7 7 11 11 11 12 12 10 11 7 7 16 20 18 15 14 14
13 14 16 18 18 19 19 18 19 18 15 15 16 16 18 19 14 12 12 11 11 11 8 12 22 30 31 27 17 12 16 17 15 15 16 18 21 22 22 22 20 17 16 15 13 12 10 7 5 6 7 8 7 6 3 3 3 3 2 4 6 6 5 6 8 7 3 2 7 9 5 2 7 8 9 10 10 10 10 10 8 12 17 19 19 16 14
13 15 16 17 17 18 18 19 19 18 17 16 16 15 16 14 6 4 8 8 9 11 14 20 29 35 32 24 17 16 18 16 14 15 16 16 18 20 22 22 21 18 15 13 11 9 7 6 7 7 7 8 7 5 4 3 3 2 3 3 4 5 6 6 5 4 3 5 5 4 6 6 4 3 4 2 7 8 5 8 11 12 13 16 18 16 15
13 16 16 17 17 18 19 19 19 18 17 16 15 15 14 9 4 3 7 9 10 14 19 23 24 22 22 24 23 18 14 11 11 13 15 16 17 19 20 21 21 19 16 14 12 9 8 9 11 10 10 10 6 4 5 5 3 2 3 4 5 6 8 9 6 4 6 7 5 2 2 4 3 1 1 3 6 6 6 10 12 12 11 12 13 13 15
13 15 16 17 18 18 20 21 20 19 17 13 12 13 11 5 4 7 9 8 7 11 14 15 13 15 23 28 22 13 11 13 13 14 16 17 18 19 19 19 19 18 16 15 12 9 10 11 11 13 15 12 7 4 4 6 6 3 2 5 7 6 7 10 10 8 7 5 4 4 4 2 2 1 1 4 6 6 7 9 10 11 10 9 8 10 12
13 15 17 18 18 19 20 21 20 19 15 10 7 9 7 3 1 5 7 6 7 9 11 13 14 19 25 25 18 14 16 17 14 15 16 16 17 18 18 18 18 16 15 15 14 12 12 11 9 12 14 10 5 4 5 6 7 4 1 3 7 7 8 10 10 11 9 6 5 5 3 2 2 3 1 2 4 6 7 8 9 10 9 7 6 8 10
13 15 17 18 19 19 21 22 21 18 14 11 10 10 9 7 6 8 10 11 10 8 8 10 11 10 11 15 18 18 17 15 15 16 17 16 14 14 14 14 15 14 14 14 12 11 12 13 12 13 12 5 1 4 6 6 5 4 4 6 7 7 9 10 8 8 8 7 5 3 2 2 1 1 0 1 2 5 5 5 7 8 8 6 4 6 8
14 16 18 18 19 20 21 20 19 15 13 12 11 10 9 10 11 13 14 13 10 8 7 7 6 5 7 16 22 17 11 12 14 14 12 11 9 8 10 11 12 13 12 12 10 10 13 14 12 11 10 7 4 4 5 6 7 9 9 8 7 8 10 7 2 1 5 8 7 3 1 2 3 2 1 1 1 3 4 4 5 7 7 5 4 5 6
15 17 19 19 20 21 20 18 15 11 8 7 7 7 7 7 8 10 11 9 8 8 6 5 4 5 9 16 16 9 10 13 13 11 9 7 5 7 10 10 9 9 10 11 12 11 11 12 11 9 9 8 7 5 5 7 10 12 10 7 8 11 8 2 7 8 2 8 8 5 3 2 2 1 1 1 0 2 3 3 4 6 7 4 3 5 6
16 17 18 19 20 19 16 12 8 6 5 4 5 6 7 9 10 8 6 6 6 6 5 5 6 6 8 10 8 8 13 16 13 10 11 12 11 13 13 9 6 6 8 10 10 9 8 10 10 8 7 7 7 6 5 7 9 10 9 6 6 8 9 5 5 9 6 5 8 6 4 2 1 2 3 2 1 2 4 4 3 4 3 2 2 3 4
16 17 19 18 16 13 10 7 5 4 4 6 7 8 9 11 12 9 7 8 8 7 6 6 6 6 6 7 6 10 15 15 13 13 13 12 11 12 12 8 6 7 9 8 7 6 9 10 9 6 5 6 6 5 6 9 9 8 8 8 7 8 10 9 4 6 11 6 2 5 5 3 2 3 4 2 1 2 2 3 2 3 3 4 5 5 5
15 16 16 12 8 10 10 7 4 4 6 8 9 10 12 13 11 7 8 10 10 10 9 7 7 9 10 8 8 11 13 11 12 12 11 10 10 10 10 7 5 7 8 7 6 7 10 10 8 6 5 6 9 11 12 11 9 7 7 8 10 10 10 8 6 1 5 8 3 3 5 3 3 6 4 0 2 1 2 1 4 5 5 6 7 6 6
12 11 9 6 6 10 8 3 3 6 9 11 12 12 12 9 6 6 7 7 8 10 10 8 9 13 13 9 9 12 12 10 10 10 8 7 8 8 8 7 6 5 6 6 6 7 8 6 5 5 6 10 13 12 9 7 7 8 8 8 9 11 11 8 5 3 4 6 4 2 1 1 3 6 4 2 5 6 2 2 4 4 5 7 7 6 6
8 8 8 7 7 7 6 5 6 10 12 11 10 8 7 6 5 5 6 6 6 8 9 9 12 15 12 8 9 12 11 9 8 8 6 7 7 6 6 6 5 5 6 5 3 3 4 5 5 5 7 8 7 3 4 5 6 7 7 8 8 9 9 6 3 0 5 5 3 4 5 4 3 0 2 4 9 9 4 1 1 2 5 7 8 7 7
6 8 9 8 7 7 7 9 10 10 8 6 6 5 6 6 5 4 5 5 5 7 9 9 12 15 14 10 8 9 9 8 8 8 8 8 8 7 6 6 5 5 6 5 2 1 3 5 5 4 4 4 7 9 9 8 7 8 8 8 9 9 7 3 0 2 3 3 3 4 5 4 4 4 3 2 6 8 6 3 1 3 5 6 7 7 7
5 7 7 8 12 14 13 11 9 6 5 6 6 5 5 6 7 7 6 4 4 5 8 7 8 8 8 9 9 10 10 10 10 10 9 7 8 8 6 5 6 5 4 5 5 3 4 6 5 3 4 10 15 18 17 14 11 11 10 9 10 10 6 2 1 1 3 3 3 4 3 2 2 1 1 1 3 6 9 8 4 3 3 5 6 6 7
9 10 9 10 12 12 10 8 7 6 5 5 4 4 4 4 5 7 7 5 5 3 4 3 5 6 7 9 11 11 11 10 10 9 7 6 7 7 5 4 5 4 4 6 7 4 5 6 4 2 6 11 15 17 18 16 15 15 13 12 11 9 5 3 2 1 2 2 1 1 1 2 1 2 3 3 2 3 5 5 2 1 2 3 4 5 5
7 7 8 10 10 7 6 7 7 5 4 3 3 3 4 4 4 5 5 4 4 4 2 3 7 8 8 9 10 11 12 12 11 9 7 6 7 6 4 3 4 4 6 7 6 5 6 4 2 3 8 12 15 16 17 16 16 16 15 14 13 10 8 5 4 3 2 2 2 3 3 3 3 3 3 3 3 3 3 2 0 1 1 2 3 4 5
4 4 5 7 7 5 3 4 6 5 2 3 4 3 4 4 5 4 2 1 2 5 6 8 10 9 9 11 12 12 12 10 7 5 6 6 6 4 3 3 4 4 6 6 5 6 5 2 3 4 9 13 16 18 18 17 17 17 17 15 14 13 12 10 8 6 6 5 4 4 4 3 3 2 2 1 2 2 2 1 1 2 1 0 2 3 4
3 5 6 5 4 3 2 3 4 5 3 4 5 5 5 6 5 4 2 3 4 8 10 12 12 11 11 12 12 10 9 8 5 3 4 5 4 3 4 4 4 4 5 5 5 5 4 3 3 6 11 15 17 19 19 17 17 18 18 17 16 15 13 12 12 11 9 5 3 2 2 2 2 2 1 2 2 2 2 2 2 3 2 1 2 3 2
5 6 5 3 4 4 4 3 2 3 3 4 5 5 6 6 7 8 7 7 9 11 11 12 13 12 12 12 10 9 10 10 7 5 5 5 4 4 5 5 4 4 5 5 5 3 2 3 4 9 14 18 19 20 19 18 18 18 18 17 17 16 15 13 12 11 10 7 4 2 1 1 1 1 1 1 1 2 1 2 3 3 2 1 2 2 2
7 7 5 4 4 4 5 5 5 7 8 7 8 9 9 9 9 9 10 10 10 11 11 12 13 13 13 12 10 9 10 9 6 5 6 4 3 4 5 4 3 4 5 4 3 3 4 5 8 13 17 19 19 19 19 19 20 20 19 17 16 16 15 14 12 12 11 9 6 3 1 1 0 1 2 2 1 2 1 1 2 2 1 1 3 2 2
6 5 4 4 3 3 5 6 8 11 12 10 9 9 9 9 9 10 10 10 10 10 11 12 12 11 11 11 9 7 8 7 5 5 5 4 3 3 3 3 4 3 2 2 2 2 4 9 13 16 18 19 20 20 20 20 21 21 21 19 17 16 16 16 16 14 10 9 8 5 2 1 1 1 1 1 1 2 2 2 1 1 2 3 3 2 3
6 5 5 5 4 5 9 10 9 9 10 10 10 9 8 8 10 9 8 8 9 10 11 13 12 9 7 8 7 6 6 6 4 4 4 4 3 2 2 3 4 3 1 2 2 2 5 9 13 14 16 18 20 20 20 21 21 21 20 20 19 17 16 19 19 14 8 8 11 10 5 1 1 1 2 3 3 3 3 2 3 3 4 4 3 4 5
7 7 8 8 7 8 10 10 7 6 7 8 9 8 7 8 9 7 7 7 9 11 12 12 11 8 5 5 5 4 4 4 4 4 5 5 4 2 2 3 4 3 2 4 5 7 10 12 13 14 16 17 19 19 20 20 21 21 20 19 19 18 17 17 18 14 8 6 8 11 10 4 1 2 2 3 4 4 3 3 3 4 4 3 3 5 7
6 7 9 11 10 9 9 8 6 6 7 8 9 9 8 9 9 7 8 10 10 10 9 8 7 5 4 4 4 4 5 5 4 4 5 4 3 3 3 3 3 4 6 8 9 10 12 13 14 14 15 16 18 19 19 19 19 20 20 18 17 18 18 15 15 16 12 5 3 8 12 7 1 2 3 3 5 6 6 4 3 3 3 3 4 5 7
6 6 7 10 12 11 11 10 10 9 9 9 10 10 9 10 10 9 9 9 8 8 8 8 7 4 4 4 4 5 6 5 4 5 4 2 2 3 4 4 5 7 9 10 10 11 11 12 13 13 14 14 16 17 17 17 17 19 20 17 15 16 17 14 12 15 16 12 8 7 8 7 5 4 4 4 6 6 5 5 4 3 2 2 3 4 5
Wind_Direction
355 353 351 352 354 357 1 1 355 350 352 357 4 355 302 284 311 243 198 196 202 234 262 265 254 246 255 270 289 293 289 285 287 288 281 269 229 203 216 229 240 251 270 284 289 289 284 281 285 270 257 269 266 254 247 235 224 214 203 205 209 217 240 240 252 268 230 211 200 204 221 224 220 225 221 216 221 220 216 219 219 214 227 234 233 239 229
356 356 352 350 353 356 360 3 359 353 352 355 357 350 316 299 301 245 211 200 199 244 277 288 289 283 280 293 304 301 295 287 290 294 290 285 209 184 222 209 212 244 275 285 287 288 285 286 288 264 250 271 272 255 236 221 214 205 197 194 196 206 216 219 240 266 218 205 197 195 214 225 221 219 219 220 224 220 216 223 221 209 226 230 229 236 219
355 357 355 352 353 356 359 4 3 356 355 355 348 336 314 301 279 208 212 213 214 244 268 285 296 302 303 307 305 302 302 304 309 310 305 310 289 163 226 206 198 243 283 288 285 280 277 268 238 242 240 255 264 244 221 213 209 202 198 185 170 220 223 184 195 229 197 191 198 192 198 215 221 214 215 222 226 219 212 225 228 212 224 230 235 247 205
354 357 358 355 355 358 0 3 4 3 2 355 345 329 311 308 299 192 209 207 217 246 259 262 267 282 299 298 299 306 309 312 318 316 311 319 77 154 197 187 187 264 268 287 286 271 270 266 240 248 259 263 251 211 201 206 203 198 198 185 168 266 255 194 201 233 229 195 194 194 194 204 209 211 215 219 225 228 222 220 227 227 230 234 241 245 186
355 356 359 358 357 359 0 1 6 14 15 4 349 323 292 292 322 348 317 219 229 245 243 242 255 271 284 292 300 306 303 306 318 318 317 333 76 162 198 174 152 234 218 260 281 274 280 271 240 251 268 287 259 200 186 194 197 188 181 185 201 253 255 224 220 241 255 239 208 194 196 207 207 206 216 221 224 233 232 226 244 252 242 236 238 233 178
356 356 357 358 358 358 359 1 6 17 31 23 352 326 312 313 323 344 0 295 267 278 277 283 295 291 287 292 290 291 297 308 322 324 325 336 21 161 256 220 190 198 199 181 283 292 310 313 224 242 248 261 238 187 171 181 188 183 185 199 209 246 263 243 238 250 256 265 269 222 202 207 210 205 213 222 225 229 234 246 272 265 247 239 246 241 173
356 355 355 356 358 358 359 0 5 14 39 44 7 341 347 347 325 331 352 319 289 296 296 291 291 285 277 275 278 285 300 317 325 329 329 330 343 1 303 280 221 198 196 189 268 296 319 321 301 306 264 262 215 166 169 184 184 185 205 213 193 192 258 253 250 261 253 248 265 251 219 209 212 213 214 220 226 228 231 243 251 247 240 240 254 271 204
354 354 354 355 355 357 359 1 4 7 25 52 34 10 2 357 338 327 330 314 292 291 289 282 281 286 283 274 292 305 318 324 327 331 333 329 331 334 318 320 317 187 187 193 223 253 281 287 289 301 289 279 235 167 173 187 186 192 212 216 185 187 258 296 283 266 261 256 254 243 224 212 214 219 218 218 223 225 223 226 231 233 234 237 252 287 305
352 352 354 355 354 355 358 1 4 4 13 33 23 8 2 354 341 325 318 309 299 298 296 288 282 291 316 317 312 319 324 325 326 330 330 325 324 331 335 340 351 156 177 200 226 240 252 260 268 274 278 283 283 259 209 193 188 195 209 215 202 206 240 343 286 247 264 280 265 249 237 225 219 221 221 217 219 225 225 221 222 229 233 238 248 258 262
349 351 352 354 354 353 353 358 3 4 10 16 4 355 354 348 342 336 323 302 293 299 302 296 288 309 344 333 321 321 323 325 327 327 324 324 328 335 341 341 341 138 173 210 232 243 247 250 262 274 279 281 287 293 272 229 199 195 210 212 207 223 244 289 267 255 246 252 256 269 280 243 220 213 217 216 218 226 228 218 219 233 241 248 247 220 226
346 350 351 352 353 351 349 353 359 3 8 8 354 344 345 344 340 334 324 300 296 307 313 309 313 331 335 329 326 323 321 323 324 322 319 326 332 336 341 338 331 345 353 292 260 261 263 260 263 269 276 278 277 283 276 243 210 200 211 208 188 203 264 275 273 296 283 271 301 343 299 244 224 209 213 215 217 224 226 218 212 218 227 241 251 234 227
344 348 348 348 350 348 345 346 353 1 5 2 350 335 332 334 331 327 323 308 303 310 312 311 315 318 321 325 327 322 317 315 316 319 320 323 332 338 342 343 339 344 345 332 303 314 310 279 265 261 260 264 265 272 271 244 212 205 209 209 183 147 179 278 262 241 285 356 10 332 258 255 292 288 238 225 222 221 224 228 223 215 215 228 246 248 236
341 345 346 345 344 343 341 339 344 352 0 1 349 327 325 331 329 325 321 306 296 307 314 309 307 311 322 329 325 316 312 311 315 323 325 323 331 339 344 346 345 340 335 327 321 344 331 278 263 270 253 249 260 270 265 247 225 214 208 202 177 134 127 278 272 249 242 54 117 248 295 300 279 266 257 243 229 218 216 223 227 225 219 218 235 251 250
337 340 343 343 340 339 337 334 335 340 351 358 348 333 336 334 323 321 320 308 298 302 299 295 306 321 329 326 319 313 313 318 325 329 326 324 327 335 345 350 348 340 332 329 354 23 356 261 246 259 247 252 270 264 249 236 229 224 217 206 176 144 148 210 250 269 268 6 276 275 297 286 254 245 270 262 241 224 216 218 216 217 218 213 216 226 232
333 336 339 340 339 338 335 330 328 330 337 347 347 340 332 317 306 312 313 307 305 300 296 312 336 331 324 318 316 318 318 326 332 324 322 326 327 334 350 352 348 345 342 342 21 78 303 303 310 234 214 209 217 227 222 216 222 228 227 218 188 174 188 225 254 293 358 9 320 286 285 275 258 311 327 310 301 315 297 253 227 208 214 221 218 212 212
329 331 335 339 337 336 335 329 323 322 326 337 341 330 318 309 305 309 306 305 302 288 296 319 324 317 310 310 315 322 327 332 329 321 323 327 324 334 350 350 346 351 354 353 5 321 308 334 328 286 240 203 198 210 209 201 206 214 217 220 215 215 234 270 277 286 310 320 297 285 288 281 282 311 327 319 310 316 304 241 228 200 213 224 223 219 214
325 327 331 337 337 336 335 329 323 317 316 328 333 320 311 307 302 300 300 297 289 276 281 299 313 314 312 313 315 322 324 316 313 318 318 313 319 337 346 342 346 359 2 1 347 337 7 18 337 315 279 226 200 195 199 202 201 197 198 206 219 222 222 276 281 279 284 288 284 271 255 264 289 316 324 313 303 293 240 217 215 331 298 246 225 217 215
323 324 329 335 336 336 334 329 325 316 309 318 324 314 308 307 303 300 295 293 290 279 279 299 317 313 305 305 304 307 312 309 308 317 309 300 322 346 340 335 353 6 2 4 3 359 23 19 339 329 316 308 261 196 208 204 199 200 197 200 215 228 220 212 263 277 276 277 288 285 261 273 304 324 301 291 286 266 221 209 241 331 331 320 291 249 226
321 322 327 333 335 336 334 328 325 319 315 320 321 311 305 301 300 299 292 287 284 279 285 300 308 298 295 301 298 297 306 308 304 309 305 304 340 342 331 331 12 4 358 5 6 7 21 2 342 330 322 341 357 329 289 233 200 208 210 211 218 218 214 223 247 264 277 273 277 286 274 273 315 322 296 280 258 209 221 278 303 311 318 329 345 344 305
320 321 326 330 331 332 333 330 325 319 320 327 322 312 306 298 293 294 289 285 283 283 288 296 297 294 299 301 295 294 302 302 300 305 302 307 330 333 329 344 6 355 358 9 3 10 15 351 349 350 334 350 353 322 317 310 262 224 205 220 228 201 203 231 230 239 263 262 265 290 303 272 6 338 312 297 295 358 295 288 300 317 330 330 349 12 351
318 319 323 328 328 328 330 330 326 318 317 325 323 312 309 306 300 297 294 290 282 279 288 299 300 296 296 291 284 281 279 277 283 295 300 301 313 325 324 316 328 343 12 3 351 10 7 343 341 340 324 330 321 314 335 322 285 254 231 235 220 169 202 242 220 216 255 256 244 272 280 208 75 50 279 297 324 311 301 300 316 335 357 342 357 43 350
314 316 319 323 325 326 328 328 325 317 312 320 325 315 308 305 301 297 294 290 278 274 286 297 296 294 296 295 287 277 268 267 272 278 287 295 300 300 291 297 314 349 15 355 335 340 351 341 324 324 317 304 308 312 313 296 290 324 317 278 228 175 210 256 278 214 219 255 250 236 179 115 68 203 240 272 307 310 319 338 346 353 14 349 344 68 330
310 313 317 320 322 325 327 326 323 317 310 312 318 312 303 302 300 291 288 289 286 287 291 293 290 292 298 302 302 294 280 268 263 263 266 275 289 293 286 294 331 351 347 2 358 327 333 330 311 318 315 294 310 321 317 305 306 327 317 304 288 220 206 238 308 230 205 249 258 245 133 120 126 280 303 345 357 335 330 338 345 355 14 8 348 120 134
307 311 315 317 320 324 326 325 320 316 312 311 310 304 298 299 303 303 298 295 296 301 301 296 289 290 294 298 305 305 289 266 262 266 257 246 262 284 283 304 348 339 322 342 346 305 301 306 295 296 303 312 336 335 312 309 306 297 298 304 302 273 252 285 251 231 234 251 258 253 153 145 141 146 318 13 20 345 328 339 345 341 339 348 66 84 92
304 308 311 314 319 323 325 325 319 314 312 309 306 302 296 294 297 302 300 296 298 302 303 297 295 298 302 303 301 296 286 275 272 270 253 234 237 254 268 291 317 316 305 313 310 290 289 299 291 293 306 329 16 337 283 283 305 311 315 308 310 330 333 320 256 241 254 240 261 300 149 114 57 28 350 24 36 357 332 352 348 337 339 4 51 67 80
299 303 307 312 318 322 324 324 319 314 311 307 304 300 293 289 289 287 285 290 294 289 275 282 294 304 312 308 303 297 291 284 272 264 254 242 240 247 260 277 289 294 296 299 293 282 282 280 279 296 304 307 321 317 307 297 295 295 302 303 291 297 313 310 289 281 278 285 354 360 24 39 28 20 2 9 32 18 347 345 351 352 359 12 27 44 63
294 300 304 310 317 321 321 321 319 318 316 312 308 301 291 288 286 278 274 281 289 285 276 285 297 305 310 310 313 319 305 286 268 261 256 248 245 247 252 262 272 281 290 292 287 280 274 266 269 282 288 293 299 300 278 248 266 278 294 304 293 284 300 318 319 322 335 5 357 13 54 15 355 1 348 1 43 44 353 337 2 20 16 11 12 23 40
291 296 301 309 316 318 318 318 318 318 319 316 313 309 302 297 294 266 262 259 262 276 288 294 296 302 308 310 313 315 302 282 265 260 256 253 252 249 248 253 260 269 277 284 287 282 272 274 283 288 297 303 305 306 291 259 242 269 286 293 297 304 318 327 324 320 306 304 334 52 136 193 256 285 277 339 64 71 36 15 26 31 24 14 11 11 12
289 295 301 309 315 317 317 316 314 314 317 316 315 317 316 313 315 276 262 257 262 277 290 296 296 296 301 306 311 313 301 283 272 264 261 261 258 253 252 252 252 256 263 270 277 278 272 276 279 282 295 305 308 314 307 289 274 279 274 272 284 295 302 306 301 276 278 291 313 11 167 201 212 237 285 25 43 59 71 59 47 44 40 24 19 25 21
290 296 301 307 314 316 315 313 312 311 314 317 317 315 310 294 222 221 233 247 272 289 294 297 295 293 299 305 311 311 300 293 284 271 266 265 261 258 258 256 252 251 253 256 261 269 275 279 278 278 283 289 289 285 295 298 298 291 237 255 282 297 308 313 312 297 281 285 306 311 294 244 193 181 86 43 37 47 61 56 51 60 61 39 26 38 38
292 298 301 307 314 316 313 311 310 309 309 309 301 292 294 316 152 206 234 270 298 297 292 289 287 293 300 304 304 299 298 298 290 279 273 267 263 261 258 255 255 249 244 249 257 262 268 273 277 280 284 287 291 290 291 293 295 302 330 304 303 317 329 324 312 295 286 294 312 304 284 228 200 202 201 29 53 78 78 60 52 57 61 59 53 42 34
298 301 304 309 314 314 311 309 308 307 303 291 269 256 257 261 254 258 284 309 315 302 291 293 294 293 298 304 308 309 303 293 287 280 266 251 252 262 260 257 259 254 248 253 259 262 265 264 261 267 272 263 226 276 279 278 287 305 310 283 276 301 317 308 285 265 268 289 309 292 218 139 106 138 175 6 66 91 93 87 77 67 56 47 44 43 39
301 302 304 309 312 311 310 308 306 304 299 289 281 274 268 260 256 267 283 297 304 298 284 287 298 289 284 300 310 319 319 304 300 294 272 240 229 252 262 257 259 258 251 248 248 257 268 269 266 272 272 252 224 253 276 283 294 300 295 285 296 315 304 284 268 5 308 308 315 297 208 120 99 85 2 331 57 67 65 80 90 84 75 57 31 37 48
299 300 303 308 311 311 309 307 303 299 297 300 305 310 311 309 302 291 277 266 274 285 273 252 264 285 292 296 304 331 350 330 319 320 314 293 269 273 272 263 250 242 238 241 245 251 263 270 273 280 281 266 248 251 269 278 286 295 299 306 335 339 315 240 109 92 349 305 315 307 270 233 177 197 309 312 190 31 18 17 40 55 62 62 50 47 51
295 301 306 310 314 315 311 307 305 298 290 294 291 283 293 312 317 302 264 239 249 268 269 249 251 279 303 302 306 345 347 330 315 313 317 311 297 285 279 272 250 224 226 239 248 251 259 271 275 275 277 272 256 246 260 274 283 299 311 311 323 325 308 302 101 126 170 278 321 318 278 263 268 287 300 289 271 353 344 336 4 42 39 19 40 52 51
296 308 314 315 321 326 317 304 305 305 282 268 261 260 278 302 305 289 262 255 252 252 271 279 268 274 295 296 303 326 329 321 317 320 317 309 298 286 276 269 260 250 245 244 247 255 260 266 271 271 268 272 273 281 299 298 294 306 327 335 330 311 301 315 6 133 161 170 317 314 290 280 325 344 326 309 40 48 348 336 30 67 67 56 55 46 35
306 316 322 324 324 316 304 287 259 248 245 246 261 280 293 300 297 271 252 259 255 244 250 266 266 267 276 283 298 312 315 318 323 323 314 307 309 307 299 289 275 270 268 254 242 257 260 256 261 273 272 271 277 283 292 302 314 333 342 337 327 313 312 331 349 13 149 139 124 331 321 321 349 355 347 49 92 55 236 146 59 53 51 53 51 39 31
318 324 329 325 293 288 294 279 222 248 265 268 280 295 296 286 270 244 237 246 247 235 230 241 258 263 264 266 278 292 304 318 318 311 312 328 333 321 302 289 277 277 282 269 258 268 266 248 243 263 267 265 269 276 291 319 343 351 343 332 326 321 321 326 321 333 57 88 122 174 168 229 306 339 352 354 355 353 352 93 65 53 62 60 49 38 37
325 322 317 307 291 301 337 345 306 302 305 295 284 281 265 243 240 236 216 209 223 225 217 227 247 251 251 263 282 289 297 305 301 298 317 339 335 314 300 305 311 304 289 279 279 292 277 258 251 255 259 263 273 318 10 4 355 350 342 337 332 319 308 301 292 71 85 90 137 152 138 171 213 138 49 346 340 351 8 65 30 31 50 47 34 28 30
314 312 310 299 284 291 318 319 309 314 319 290 256 250 246 237 236 227 202 204 221 208 199 224 248 241 235 250 284 300 302 301 302 309 317 319 312 303 303 315 324 311 288 282 300 332 281 280 277 270 284 338 10 11 359 348 351 356 350 343 337 325 310 309 19 132 125 110 114 116 110 127 157 139 119 327 334 349 351 339 356 48 45 35 29 24 20
282 286 291 285 275 272 277 287 290 288 276 255 241 242 244 238 236 233 228 255 275 210 191 226 266 257 240 258 286 301 305 308 312 310 303 295 293 292 289 294 299 290 274 286 306 313 288 279 274 285 5 16 13 5 359 357 355 350 347 348 348 341 332 341 26 181 171 132 110 107 93 81 101 119 329 328 353 356 352 354 11 46 40 28 25 22 17
278 282 292 299 294 287 284 281 264 242 240 245 244 249 250 245 248 241 229 245 288 275 189 218 293 310 305 298 296 297 302 308 307 299 290 289 293 292 288 293 290 273 270 293 304 298 276 273 274 328 9 8 6 3 0 356 349 345 346 347 346 343 338 332 319 260 214 186 142 94 26 17 349 297 302 300 293 311 332 346 4 38 36 22 14 15 23
289 297 306 307 301 292 280 260 233 213 220 233 229 249 258 238 235 246 240 242 275 278 259 298 314 313 309 306 302 300 301 301 296 288 285 294 303 302 296 283 276 281 304 312 302 273 271 288 341 3 351 357 4 2 356 349 345 346 347 343 339 340 339 325 303 277 270 277 276 285 310 325 310 283 277 277 275 285 306 316 82 105 54 20 18 27 32
314 293 283 286 282 272 255 226 196 183 207 229 212 232 260 250 245 262 285 6 331 288 288 308 316 314 312 313 310 303 298 296 293 284 280 284 291 293 282 271 274 294 312 311 285 269 288 355 49 355 343 356 3 359 354 350 348 347 348 346 344 343 340 333 323 304 291 289 288 284 289 299 291 269 264 285 287 285 288 273 181 157 160 26 54 55 42
313 266 255 260 260 238 214 200 191 194 223 236 221 229 253 266 279 303 8 29 330 304 303 312 313 306 303 304 302 295 293 295 293 280 282 289 291 280 270 275 288 298 295 281 266 275 316 14 10 346 356 6 4 358 355 354 350 348 347 348 348 344 337 336 339 331 312 298 295 285 272 268 263 257 271 300 298 288 268 226 193 194 211 196 96 81 52
275 265 253 258 260 240 227 231 224 214 228 238 242 258 276 291 308 325 337 334 318 311 312 316 312 304 300 301 296 286 285 286 282 279 287 291 287 282 284 288 292 285 272 267 271 293 4 13 338 346 2 8 5 360 356 353 352 351 348 346 349 346 335 331 338 336 319 301 291 282 274 271 277 305 337 346 348 350 323 197 182 194 221 178 122 105 53
266 255 238 247 262 242 227 237 246 250 261 274 284 294 305 315 317 313 312 315 317 316 313 309 305 299 294 293 289 281 278 276 277 289 294 287 277 286 292 288 272 263 266 281 312 357 9 351 345 354 2 4 3 0 356 352 353 354 350 345 344 342 336 331 328 321 313 307 300 285 289 332 356 52 38 28 36 46 44 120 162 187 208 132 114 97 36
268 251 229 238 253 237 240 255 259 258 265 280 290 290 296 306 306 302 308 317 320 316 311 308 307 303 296 290 288 286 282 277 271 271 271 264 263 279 280 267 256 261 287 355 39 43 343 339 348 357 1 1 0 359 356 353 351 351 351 349 343 339 339 337 326 314 316 333 331 310 287 357 19 49 68 50 61 77 75 71 93 136 130 116 109 77 19
262 260 250 252 262 265 265 272 279 280 282 288 290 285 285 291 295 303 321 326 315 311 311 305 299 295 295 296 297 292 280 274 272 269 265 263 261 260 269 279 279 277 343 49 43 15 347 347 354 359 1 360 358 355 354 353 350 348 349 350 348 347 349 347 336 322 313 327 327 319 305 238 150 117 108 96 74 60 63 78 90 99 107 109 92 53 36
247 253 251 248 259 276 276 270 270 281 290 291 292 292 295 294 297 321 9 1 322 309 306 296 283 274 278 291 292 286 282 289 293 286 276 273 268 263 285 304 305 318 15 28 13 2 1 3 5 2 359 357 356 353 351 352 351 349 347 350 354 358 1 1 358 350 331 304 316 331 332 321 185 129 98 100 90 65 50 66 91 100 99 89 66 53 50
236 240 242 239 245 267 284 283 279 285 294 298 304 314 319 310 303 326 4 357 326 305 300 300 298 294 287 277 272 284 305 317 309 283 279 287 297 303 316 333 341 348 360 7 8 7 7 9 8 2 353 350 351 351 349 349 352 353 351 352 358 1 2 11 26 27 17 358 326 333 332 329 55 94 53 65 81 76 65 57 58 70 73 65 60 63 62
235 244 260 260 257 263 274 280 282 286 292 296 302 308 312 308 304 313 329 328 311 296 302 313 314 302 288 293 303 308 310 309 294 284 293 337 15 351 344 357 359 353 353 355 356 359 2 2 359 355 350 346 347 348 348 348 352 356 356 356 2 6 5 12 37 50 49 52 56 31 9 15 48 58 44 49 62 71 73 60 46 52 77 81 74 80 82